Wind_Speed
22 21 21 21 22 22 21 20 21 20 20 20 20 20 20 20 19 19 19 19 19 19 18 18 18 18 18 19 19 19 20 20 20 19 18 18 18 18
22 22 22 22 23 23 23 22 22 21 20 21 21 20 20 20 20 20 20 20 20 19 19 19 19 19 19 19 20 20 20 20 19 19 19 19 19 19
23 23 23 24 24 24 24 24 23 22 22 22 22 22 21 22 22 22 21 21 21 20 20 20 20 19 19 20 20 21 21 20 20 20 20 20 20 21
25 25 25 25 25 25 25 25 24 24 24 23 23 23 23 22 22 22 22 22 22 21 20 20 20 20 21 21 21 20 20 20 21 21 21 21 21 22
26 26 26 26 26 26 26 26 25 25 24 24 24 24 24 23 23 23 23 23 22 21 21 21 21 22 22 22 22 22 22 22 21 21 22 22 22 22
28 28 28 27 27 27 26 26 26 26 25 24 24 24 24 24 24 24 24 23 22 22 22 23 23 23 23 23 23 23 23 22 21 22 22 22 22 22
29 29 29 28 27 27 27 27 26 26 26 26 25 25 25 25 25 25 24 24 23 23 23 23 24 24 24 24 24 24 23 22 22 23 22 22 22 22
28 28 28 28 28 28 28 27 26 26 27 26 26 26 25 25 25 24 24 24 24 24 24 24 24 24 24 24 24 23 23 22 22 22 22 22 22 22
29 29 29 29 29 29 28 27 27 27 27 27 27 26 26 26 25 25 25 25 25 25 25 25 25 25 24 24 24 23 23 22 23 23 22 23 23 23
30 30 30 29 29 29 29 29 29 28 28 28 27 27 27 27 26 26 27 27 26 26 26 26 25 25 25 25 24 24 23 23 23 23 23 23 23 23
31 31 31 31 30 30 30 30 30 29 29 29 29 28 29 28 28 28 27 27 27 26 27 27 26 26 26 25 25 24 24 23 23 23 24 24 24 24
31 31 31 32 32 32 31 31 30 30 30 30 29 29 29 29 29 29 28 28 27 27 27 27 27 27 26 26 26 25 25 24 24 24 24 24 24 24
32 32 31 32 32 33 33 32 32 31 31 30 30 30 29 29 30 30 29 29 28 28 28 28 28 27 27 26 26 26 26 26 25 25 25 25 25 25
32 32 32 32 32 32 32 32 33 32 32 31 30 30 30 30 30 30 30 29 29 29 29 30 29 29 28 27 27 26 26 27 26 26 26 26 26 25
33 33 33 32 32 32 32 32 33 32 32 32 31 30 29 30 30 30 30 30 30 30 31 31 31 30 30 29 28 28 27 27 27 27 27 27 26 26
32 33 33 33 32 32 32 32 32 32 32 32 32 31 31 31 31 31 32 31 31 31 30 31 31 31 30 30 30 29 29 28 27 27 27 27 27 27
33 33 32 32 32 33 32 32 32 32 32 32 32 31 32 32 32 32 32 32 32 31 31 32 32 32 31 31 30 30 30 29 28 28 28 27 27 27
33 33 32 32 31 32 32 32 32 32 32 32 32 32 33 33 32 32 32 33 33 33 32 32 32 32 32 31 31 31 31 30 29 29 29 29 28 28
33 33 32 31 31 31 31 31 32 32 33 33 33 33 34 34 33 33 33 33 33 33 33 33 33 33 32 31 31 32 31 31 31 30 30 30 29 29
33 32 33 32 31 31 32 32 32 32 33 33 33 33 34 34 34 34 34 33 33 33 32 32 33 33 33 33 33 32 32 32 32 32 32 31 31 31
32 31 32 31 31 31 33 34 34 33 33 34 34 34 34 34 34 34 34 33 33 33 32 32 32 33 33 32 32 31 31 32 32 32 32 32 31 31
30 30 30 31 31 32 33 33 34 34 34 34 34 34 34 34 34 34 34 33 33 32 32 32 32 32 32 32 32 32 32 32 33 34 34 33 32 32
31 31 31 31 32 32 33 33 34 34 34 34 34 35 35 34 34 34 34 34 33 33 33 32 32 32 32 32 32 32 32 32 32 33 34 33 33 33
Wind_Direction
279 281 282 283 283 286 286 284 284 284 285 286 288 289 290 291 291 292 295 296 295 292 289 287 283 283 284 283 284 285 284 283 283 283 284 286 288 288
278 279 281 283 283 284 285 285 285 283 283 284 285 285 286 288 289 290 292 292 291 291 289 288 287 286 284 284 283 283 284 284 284 284 284 285 284 287
278 279 280 281 282 283 284 284 284 283 284 284 286 285 284 285 287 289 291 291 290 290 288 286 286 287 287 287 285 284 285 285 283 283 284 285 285 286
278 279 279 280 281 281 281 282 282 281 283 285 286 286 284 284 286 288 289 288 288 288 286 285 286 286 285 285 285 285 287 286 283 281 282 284 285 286
277 277 279 279 279 280 279 279 279 280 281 284 285 285 284 285 285 285 284 284 285 285 286 286 286 286 285 285 285 286 287 286 283 282 281 281 283 284
277 276 277 278 279 278 277 278 278 277 278 280 283 282 280 282 282 282 281 281 282 283 284 285 285 285 284 283 283 285 287 286 284 283 283 282 281 281
273 274 275 276 279 277 276 276 276 276 276 276 279 281 280 280 280 280 279 278 280 281 282 282 283 284 285 285 285 285 284 284 284 284 284 284 282 281
273 274 274 274 276 277 275 274 274 276 276 275 278 279 280 280 279 279 279 278 278 280 281 282 283 285 286 286 287 285 283 282 283 284 283 283 282 281
273 274 274 273 273 274 274 274 275 275 276 276 277 278 279 278 278 278 280 280 279 280 280 282 283 284 284 285 285 284 282 281 283 283 283 284 283 282
274 273 273 274 273 273 272 272 273 274 276 277 277 277 277 278 277 277 279 280 279 279 279 280 281 282 283 284 283 282 280 280 282 283 283 283 282 281
276 274 273 274 274 274 274 273 273 273 274 275 275 276 277 275 275 277 279 279 278 278 278 278 279 279 280 281 280 280 279 279 280 282 282 282 282 281
275 274 273 272 273 273 274 273 273 273 273 273 274 276 277 274 275 276 277 277 277 276 277 278 278 278 277 278 279 278 278 278 278 279 280 281 282 283
274 274 273 273 273 272 272 273 272 272 272 273 273 274 275 273 273 274 275 276 276 275 275 276 277 277 276 276 277 277 277 277 277 278 278 280 282 283
273 273 273 273 272 271 271 272 272 271 271 271 273 274 274 273 272 274 275 275 275 275 275 276 276 276 275 275 276 276 277 277 277 277 278 279 280 282
273 273 272 272 272 271 271 272 271 271 271 272 272 273 274 274 273 273 274 274 274 275 276 275 274 274 274 274 275 275 276 276 275 276 277 277 278 280
275 274 273 272 271 271 271 270 270 270 270 271 271 272 273 274 274 273 273 274 274 275 275 275 274 273 272 272 273 274 274 274 274 275 276 276 278 279
273 274 274 272 270 270 270 269 269 269 269 270 269 270 271 273 274 274 274 274 274 274 274 274 274 272 271 270 271 272 273 273 273 274 276 276 278 279
274 274 273 271 271 270 269 270 270 269 269 269 269 270 271 271 272 273 273 273 274 274 273 273 273 272 271 270 270 271 272 272 272 274 275 275 276 277
274 274 274 272 270 269 269 271 272 269 269 268 268 270 271 271 272 272 273 274 275 274 274 272 271 271 270 270 270 271 271 271 271 273 273 273 274 275
275 275 273 272 270 270 270 270 270 270 270 269 269 269 269 270 271 271 272 274 274 275 275 274 272 271 270 270 270 271 271 271 270 271 271 271 272 274
272 272 273 273 273 273 272 271 270 270 271 270 271 271 270 271 271 271 272 272 272 273 274 274 273 272 271 271 271 271 272 271 270 271 271 271 271 273
273 272 273 273 274 273 273 274 274 273 272 271 271 272 272 272 272 272 272 273 273 272 273 273 273 272 271 271 271 271 272 273 273 272 271 271 271 272
273 273 272 272 274 273 274 275 275 275 273 271 271 272 271 272 272 271 271 271 272 272 272 273 273 272 271 272 272 272 272 273 273 271 270 270 271 270
Height
5812 5812 5812 5812 5811 5811 5811 5810 5810 5810 5809 5808 5807 5806 5805 5804 5803 5802 5801 5799 5798 5797 5797 5796 5795 5794 5793 5793 5792 5791 5790 5790 5789 5788 5788 5787 5786 5785
5807 5807 5806 5806 5806 5805 5805 5804 5804 5803 5803 5802 5801 5800 5799 5798 5797 5796 5795 5794 5793 5792 5791 5790 5789 5788 5788 5787 5786 5785 5785 5784 5783 5783 5782 5781 5781 5779
5800 5800 5800 5800 5800 5799 5798 5798 5798 5797 5796 5796 5795 5794 5793 5793 5791 5790 5789 5788 5787 5785 5785 5784 5784 5783 5782 5781 5780 5779 5778 5777 5777 5776 5776 5775 5774 5773
5794 5793 5793 5793 5793 5792 5792 5791 5791 5790 5790 5789 5788 5787 5787 5786 5785 5784 5783 5782 5781 5780 5779 5778 5778 5777 5776 5775 5774 5773 5772 5771 5770 5770 5770 5769 5768 5767
5786 5786 5786 5786 5786 5785 5785 5784 5784 5783 5783 5782 5782 5781 5780 5779 5778 5777 5776 5775 5774 5773 5773 5772 5771 5771 5769 5768 5767 5767 5766 5765 5764 5763 5763 5762 5761 5760
5778 5778 5778 5778 5778 5778 5777 5777 5776 5776 5775 5775 5774 5773 5773 5772 5771 5770 5769 5768 5768 5767 5766 5766 5765 5764 5763 5762 5761 5760 5758 5758 5757 5757 5756 5755 5754 5753
5770 5770 5770 5770 5770 5770 5769 5769 5769 5768 5768 5767 5767 5766 5765 5764 5764 5763 5762 5761 5761 5760 5759 5759 5758 5757 5756 5755 5753 5752 5751 5751 5750 5750 5749 5748 5747 5746
5761 5762 5761 5761 5761 5761 5761 5760 5760 5760 5760 5760 5759 5758 5758 5757 5756 5755 5754 5754 5753 5753 5752 5751 5750 5750 5748 5747 5746 5745 5744 5744 5743 5743 5742 5741 5740 5739
5752 5753 5753 5753 5753 5752 5752 5752 5752 5751 5752 5751 5751 5751 5750 5749 5748 5747 5746 5746 5745 5745 5744 5744 5743 5742 5741 5740 5738 5738 5737 5737 5736 5736 5735 5734 5733 5732
5743 5743 5744 5744 5744 5744 5743 5743 5743 5743 5743 5743 5743 5742 5741 5740 5740 5739 5738 5737 5737 5736 5736 5735 5735 5734 5733 5732 5731 5730 5730 5730 5729 5729 5728 5727 5726 5725
5734 5734 5734 5734 5734 5734 5734 5734 5734 5734 5734 5734 5734 5733 5732 5731 5731 5731 5730 5730 5729 5729 5728 5727 5727 5726 5725 5725 5724 5723 5723 5722 5722 5721 5721 5720 5719 5718
5724 5724 5724 5724 5724 5724 5724 5725 5725 5725 5725 5725 5724 5724 5723 5722 5722 5722 5721 5721 5721 5721 5720 5719 5718 5718 5718 5717 5716 5716 5715 5715 5715 5714 5713 5712 5711 5710
5715 5714 5714 5714 5714 5714 5714 5715 5715 5715 5715 5715 5715 5714 5714 5713 5713 5712 5712 5712 5712 5712 5711 5710 5710 5709 5709 5709 5708 5708 5707 5707 5707 5706 5705 5704 5704 5703
5704 5704 5704 5704 5703 5703 5704 5704 5704 5704 5705 5705 5705 5705 5704 5703 5703 5703 5702 5702 5702 5702 5702 5701 5701 5700 5700 5700 5700 5700 5699 5699 5699 5698 5698 5697 5696 5695
5693 5693 5693 5693 5693 5693 5693 5693 5693 5694 5694 5695 5695 5695 5695 5694 5693 5693 5693 5693 5692 5692 5692 5691 5691 5691 5691 5691 5691 5691 5691 5691 5690 5690 5689 5689 5688 5687
5683 5683 5683 5683 5683 5682 5682 5683 5683 5683 5684 5684 5684 5685 5685 5684 5684 5683 5683 5683 5683 5683 5682 5681 5681 5681 5681 5681 5682 5682 5682 5682 5682 5681 5681 5680 5680 5679
5672 5672 5672 5672 5672 5672 5672 5672 5673 5673 5673 5674 5674 5674 5674 5674 5674 5673 5673 5673 5673 5673 5673 5672 5671 5671 5671 5672 5672 5673 5673 5673 5673 5673 5672 5672 5671 5671
5662 5662 5662 5662 5662 5661 5661 5662 5662 5662 5663 5663 5663 5664 5664 5664 5664 5663 5663 5663 5663 5663 5662 5662 5662 5662 5662 5662 5663 5663 5663 5663 5663 5663 5663 5663 5663 5662
5651 5651 5651 5651 5651 5651 5651 5651 5652 5652 5652 5653 5653 5653 5653 5653 5653 5653 5653 5653 5652 5652 5652 5652 5652 5652 5653 5654 5653 5653 5653 5654 5653 5653 5653 5654 5654 5653
5640 5640 5640 5640 5640 5640 5641 5641 5641 5642 5641 5642 5642 5642 5642 5642 5642 5642 5642 5642 5642 5642 5642 5642 5642 5642 5642 5643 5643 5643 5643 5643 5643 5644 5643 5643 5643 5644
5630 5629 5629 5629 5629 5630 5630 5630 5630 5630 5631 5631 5631 5631 5631 5631 5631 5631 5631 5631 5631 5631 5631 5631 5631 5631 5631 5632 5633 5633 5632 5632 5632 5633 5633 5633 5633 5634
5619 5619 5619 5619 5619 5619 5619 5619 5619 5619 5619 5619 5619 5619 5620 5620 5620 5620 5620 5621 5621 5621 5621 5621 5621 5621 5621 5622 5622 5623 5622 5622 5621 5621 5622 5623 5623 5623
5608 5608 5608 5608 5608 5608 5608 5608 5608 5608 5608 5608 5608 5608 5608 5608 5608 5609 5609 5609 5609 5610 5610 5610 5610 5611 5611 5611 5612 5612 5612 5611 5611 5611 5611 5611 5612 5612